Voltar ao catálogo

FENGYUN 1C DEB

AtivoPO
NORAD 30857·DEBRIS·🇨🇳 China

Lançado May 10, 1999 de Taiyuan Satellite Launch Center

Loading…

Próximas Passagens (próximas 24 horas)

TLE

AtualizadoSource: Space-Track

Época: Sep 12, 2026, 12:18 UTC

1 30857U 99025AWT 26255.51254235  .00009537  00000-0  19709-2 0  9997
2 30857  98.9705 270.8802 0035664 181.3807 178.7298 14.60183497  7093

Acompanhe FENGYUN 1C DEB em tempo real com AllMySat

Download on the App Store